{"data":{"norad_id":68985,"epoch":"2026-05-25T03:12:52.909344Z","epoch_age_seconds":77552,"freshness":"FRESH","line1":"1 68985U 26100F   26145.13394571  .00001466  00000+0  15140-3 0  9996","line2":"2 68985  97.7394  43.0186 0001963 155.1755 204.9559 14.91669633  3260","mean_motion":14.91669633,"eccentricity":0.0001963,"inclination_deg":97.7394,"raan_deg":43.0186,"arg_perigee_deg":155.1755,"mean_anomaly_deg":204.9559,"bstar":0.0001514,"rev_number":326,"period_min":96.536120877108,"perigee_km":591.36074485361,"apogee_km":594.09750689463,"semimajor_km":6970.8661258741,"source":"CELESTRAK","updated_at":"2026-05-25T13:38:08.807877Z"}}